Regional Weather Roundup
Issued by NWS Albany, NY

Home | Current Version | Previous Version | Graphics & Text | Print | Product List | Glossary Off
Versions: 1 2 3 4 5 6 7 8 9 10 11 12 13 14 15 16 17 18 19 20 21 22 23 24 25 26 27 28 29 30 31 32 33 34 35 36 37 38 39 40 41 42 43 44 45 46 47 48 49 50

000
ASUS41 KALY 260310
RWRALY

NEW YORK STATE HOURLY WEATHER ROUNDUP
NATIONAL WEATHER SERVICE ALBANY NY
1100 PM EDT TUE APR 25 2017

NOTE: "FAIR" INDICATES FEW OR NO CLOUDS BELOW 12,000 FEET WITH NO
SIGNIFICANT WEATHER AND/OR NO OBSTRUCTIONS TO VISIBILITY.

NYZ032-033-038>043-046>054-057>066-NYZ062>081-082-084-260400-
EAST


CITY           SKY/WX    TMP DP  RH WIND       PRES   REMARKS
ALBANY         LGT RAIN  51  48  89 N3        30.02F
GLENS FALLS    LGT RAIN  50  47  89 N7        30.05F
POUGHKEEPSIE   RAIN      50  49  96 N6        29.93F FOG
NEWBURGH       LGT RAIN  50  50 100 E13G18    29.94F FOG
MONTGOMERY     LGT RAIN  51  49  92 NE10      29.92F FOG
WHITE PLAINS   LGT RAIN  54  52  93 E14G25    29.88F FOG
ISLIP          LGT RAIN  56  56 100 E17G25    29.87F
NEW YORK CITY  LGT RAIN  53  50  89 NE14      29.89R
CENTRAL PARK   LGT RAIN  51  51 100 E10G26    29.91S FOG
$$

NYZ005>009-017-018-044>046-055-056-260400-
CENTRAL


CITY           SKY/WX    TMP DP  RH WIND       PRES   REMARKS
FULTON         PTCLDY    54  47  77 SE15G22   29.91F
SYRACUSE       CLOUDY    52  48  86 E16       29.91F
ROME           LGT RAIN  52  48  86 E10G18    29.98F
ELMIRA         LGT RAIN  56  53  90 VRB6      29.87F FOG
BINGHAMTON     CLOUDY    49  48  97 E8        29.88F
MONTICELLO     CLOUDY    46  46 100 E16G24    29.93F
$$

NYZ026>034-041>043-087-260400-
NORTH


CITY           SKY/WX    TMP DP  RH WIND       PRES   REMARKS
WATERTOWN      CLOUDY    56  50  80 N3        29.92F
FORT DRUM      NOT AVBL
OGDENSBURG     FAIR      51  49  96 NE5       29.97F
MASSENA        CLOUDY    48  48 100 NE7       30.00F
SARANAC LAKE   CLOUDY    50  49  96 CALM      30.01F
PLATTSBURGH    LGT RAIN  47  46  97 S3        30.07F
$$

NYZ001>004-010>016-019>021-085-260400-
WEST


CITY           SKY/WX    TMP DP  RH WIND       PRES   REMARKS
NIAGARA FALLS  CLOUDY    62  51  67 SE10      29.83S
BUFFALO        CLOUDY    59  52  77 E3        29.84F
DUNKIRK        CLOUDY    60  52  74 E10       29.81F
JAMESTOWN      CLOUDY    57  48  72 SE7       29.82F
WELLSVILLE     CLOUDY    53  50  89 SE9       29.87F FOG
ROCHESTER      LGT RAIN  57  51  80 E7        29.88S
PENN YAN       CLOUDY    56  48  74 VRB3      29.88F
$$

             KEY
       WCI = WIND CHILL INDEX
       VSB = VISIBILITY
       HX  = HEAT INDEX
$$



USA.gov is the U.S. government's official web portal to all federal, state and local government web resources and services.